Starlink 2378

operational
NORAD ID: 47916 Int'l Des: 2021-021 Owner: SPXS Country: US Constellation: starlink
LEOCIRCULAR

About Starlink 2378

Description loading...

Live Position

Loading 3D Globe...

Upcoming Passes

Altitude History

Altitude vs Time

uPlot chart will show altitude changes over time

Two-Line Element Set

1 47916U 21021BJ 26093.39808182 .00015005 00000-0 51734-3 0 9996
2 47916 53.1588 140.5916 0001280 68.4105 291.7032 15.30223470280191
Epoch: Apr 3, 2026 • Age: 32 hours

Current Status

Altitude 480.1 km
Velocity 7.63 km/s
Sub-Earth Point 49.93°N, 158.47°E
Launch Date Mar 14, 2021
Age 5 years
Type internet

Technical Details

Classification Payload
Mass 260.00 kg
Dry Mass 248.00 kg
Total Mass 260.00 kg
Length 0.20 m
Diameter 2.80 m
Span 9.00 m
Shape Box + pan
Manufacturer SPXS
Bus Type Starlink
Phase Status In Orbit
Owner/State SPXS/US

Large Constellations

Loading constellations...